YOTSUBA-KULOVER

Last updated on Mon Oct 20 2025 00:02:08 GMT+0000 (Coordinated Universal Time)

1 65941U 98067XN 25292.22604448 .00093525 00000+0 15397-2 0 9995 2 65941 51.6329 52.2630 0002391 253.1595 106.9133 15.51557552 1371
UTC large
Height (km)
Speed (km/s)
/
Latitude / Longitude
Inclination (degrees)
Orbital Period (minutes)
Azimuth
Elevation
Range (km)
Doppler Factor

Next 0 passes for location: London (51.5072 / 0.1276)

Sorry there are no passes over London.